Regional Weather Roundup
Issued by NWS

Home | Current Version | Previous Version | Text Only | Print | Product List | Glossary Off
Versions: 1 2 3 4 5 6 7 8 9 10 11 12 13 14 15 16 17 18 19 20 21 22 23 24 25 26 27 28 29 30 31 32 33 34 35 36 37 38 39 40 41 42 43 44 45 46 47 48 49 50

059
ASUS43 KDMX 250808
RWRIA

WEATHER ROUNDUP FOR IOWA
NATIONAL WEATHER SERVICE DES MOINES IA
300 AM CDT MON JUL 25 2016

NOTE: "FAIR" INDICATES FEW OR NO CLOUDS BELOW 12,000 FEET WITH NO
SIGNIFICANT WEATHER AND/OR OBSTRUCTIONS TO VISIBILITY.

* - THESE STATIONS ARE NOT NWS STATIONS...THUS NOT UNDER NWS
QUALITY CONTROL.  THEY ALSO DO NOT REPORT WEATHER SUCH
AS PRECIPITATION OR FOG.

IAZ001>003-012>014-020>022-031>034-043>046-250900-
   NORTHWEST IOWA

CITY           SKY/WX    TMP DP  RH WIND       PRES   REMARKS
CARROLL *      CLEAR     64  63  94 CALM      30.06S
CHEROKEE *     CLEAR     65  63  90 NE5       30.07S
LE MARS *      CLEAR     63  61  94 CALM      30.08S
SHELDON *      CLEAR     61  61 100 CALM      30.07S
SIOUX CITY     CLEAR     63  60  90 W5        30.06F
SPENCER        CLEAR     61  59  93 CALM      30.08R
STORM LAKE *   CLEAR     64  63  94 NW5       30.08S
$$

IAZ055>058-069>071-079>083-090>094-250900-
   SOUTHWEST IOWA

CITY           SKY/WX    TMP DP  RH WIND       PRES   REMARKS
ATLANTIC *     CLEAR     64  63  94 N3        30.05F
CLARINDA *       N/A     66  66 100 MISG      30.06S
COUNCIL BLFS *   N/A     66  64  94 NE7       30.05S
CRESTON *      CLEAR     66  64  94 NE8       30.06S
HARLAN  *      PTCLDY    63  63 100 N3        30.09S
LAMONI         PTCLDY    70  66  87 NE5       30.04S
RED OAK *      CLEAR     66  64  94 CALM      30.05S
SHENANDOAH *   CLEAR     66  66 100 N5        30.05R
$$

IAZ047>049-059>061-072>074-084-250900-
   CENTRAL IOWA

CITY           SKY/WX    TMP DP  RH WIND       PRES   REMARKS
AMES           PTCLDY    67  66  97 N7        30.05S
ANKENY *         N/A    N/A N/A N/A MISG        N/A
BOONE *          N/A     66  64  94 N8        30.05S
CHARITON *       N/A    N/A N/A N/A MISG        N/A
DES MOINES     PTCLDY    72  65  78 N7        30.03F
GRINNELL*      PTCLDY    67  63  86 N6        30.04F
KNOXVILLE *    CLEAR     70  63  78 N8        30.02F
MARSHALLTOWN   CLEAR     64  63  96 CALM      30.04F
NEWTON *       CLOUDY    68  64  88 N7        30.03F
PELLA *        CLEAR     66  64  92 N5        30.04F
PERRY *          N/A     66  66  98 N5        30.05F
$$

IAZ004>006-015-016-023>025-035-036-250900-
   NORTH CENTRAL IOWA

CITY           SKY/WX    TMP DP  RH WIND       PRES   REMARKS
ALGONA *       CLEAR     66  63  88 NW5       30.06S
ESTHERVILLE    CLEAR     61  61 100 NW5       30.06F
FORT DODGE *   CLEAR     66  61  82 CALM      30.07R
MASON CITY     CLEAR     64  62  93 W5        30.07R
FOREST CITY *    N/A     61  61 100 CALM      30.05S FOG
IOWA FALLS *     N/A     65  63  93 W3        30.07S
$$

IAZ007>011-017>019-026>030-037>042-050>054-066-250900-
   NORTHEAST IOWA

CITY           SKY/WX    TMP DP  RH WIND       PRES   REMARKS
CEDAR RAPIDS   PTCLDY    69  67  93 N7        30.01F
CHARLES CITY * CLEAR     63  63 100 W3        30.05S
CLINTON *      CLOUDY    70  67  90 N8        30.00S
DECORAH *      CLEAR     64  64 100 CALM      30.03S
DUBUQUE        CLOUDY    70  65  84 N9        30.02S
MONTICELLO *   CLOUDY    68  66  94 NW5       30.01F
OELWEIN *      PTCLDY    64  64 100 W5        30.05F
WATERLOO       CLEAR     65  63  93 CALM      30.03F
$$

IAZ064-065-067-068-078-250900-
   EAST CENTRAL IOWA

CITY           SKY/WX    TMP DP  RH WIND       PRES   REMARKS
DAVENPORT      PTCLDY    69  66  90 NW5       30.01R
IOWA CITY      CLOUDY    73  66  78 N7        30.02F
MT. PLEASANT *   N/A     74  70  88 N8        30.01S
MUSCATINE *    PTCLDY    72  66  83 CALM      30.01R
QUAD CITIES    CLOUDY    75  66  73 N3        29.99S
$$

IAZ062-063-075>077-085>089-095>099-250900-
   SOUTHEAST IOWA

CITY           SKY/WX    TMP DP  RH WIND       PRES   REMARKS
BURLINGTON     CLOUDY    73  69  87 N12       30.01S
FAIRFIELD *    CLOUDY    70  66  88 N5        30.01F
KEOKUK *       CLOUDY    73  70  88 CALM      30.01R
OSKALOOSA *      N/A     66  63  90 N7        30.03S
CENTERVILLE *    N/A     72  64  78 N8        30.05S
OTTUMWA        CLOUDY    70  64  81 N8        30.02S
WASHINGTON *   CLOUDY    72  66  83 N7G13     30.02S
$$

ABBREVIATIONS USED IN REMARKS
   TC - TEMPERATURES IN CELSIUS
  WCI - WIND CHILL INDEX
   HX - HEAT INDEX
  VSB - VISIBILITY
$$





USA.gov is the U.S. government's official web portal to all federal, state and local government web resources and services.